| time (UTC) | temp C | wind direction | speed KPH | gust KPH | rain 1hr cm | rain 24hr cm | rain mn cm | humidity % | barometer mb |
| 20260507141547 | 11 | 77 | 3.2 | 8.0 | 0.00 | 0.00 | 0.00 | 57 | 1009.7 |
| 20260507140047 | 11 | 99 | 3.2 | 9.7 | 0.00 | 0.00 | 0.00 | 58 | 1009.6 |
| 20260507134547 | 10 | 65 | 6.4 | 14.5 | 0.00 | 0.00 | 0.00 | 58 | 1009.5 |
| 20260507133053 | 10 | 70 | 3.2 | 11.3 | 0.00 | 0.00 | 0.00 | 62 | 1009.4 |
| 20260507131548 | 9 | 88 | 3.2 | 11.3 | 0.00 | 0.00 | 0.00 | 64 | 1009.6 |
| 20260507130059 | 8 | 64 | 4.8 | 11.3 | 0.00 | 0.00 | 0.00 | 66 | 1009.5 |
| 20260507124607 | 8 | 90 | 3.2 | 9.7 | 0.00 | 0.00 | 0.00 | 67 | 1009.3 |
| 20260507123102 | 8 | 93 | 1.6 | 6.4 | 0.00 | 0.00 | 0.00 | 66 | 1009.3 |
| 20260507121556 | 8 | 86 | 1.6 | 8.0 | 0.00 | 0.00 | 0.00 | 67 | 1009.5 |
| 20260507120040 | 8 | 101 | 0.0 | 4.8 | 0.00 | 0.00 | 0.00 | 65 | 1009.4 |
| 20260507114541 | 8 | 101 | 0.0 | 6.4 | 0.00 | 0.00 | 0.00 | 63 | 1009.4 |
| 20260507113047 | 8 | 108 | 0.0 | 4.8 | 0.00 | 0.00 | 0.00 | 60 | 1009.2 |
| 20260507111547 | 8 | 0 | 0.0 | 1.6 | 0.00 | 0.00 | 0.00 | 62 | 1008.9 |
| 20260507110046 | 8 | 0 | 0.0 | 1.6 | 0.00 | 0.00 | 0.00 | 63 | 1008.9 |
| 20260507104544 | 8 | 0 | 0.0 | 3.2 | 0.00 | 0.00 | 0.00 | 66 | 1008.9 |
| 20260507103042 | 8 | 0 | 0.0 | 1.6 | 0.00 | 0.00 | 0.00 | 64 | 1008.9 |
| 20260507101548 | 8 | 113 | 0.0 | 1.6 | 0.00 | 0.00 | 0.00 | 64 | 1008.7 |
| 20260507100056 | 8 | 0 | 0.0 | 3.2 | 0.00 | 0.00 | 0.00 | 60 | 1008.8 |
| 20260507094548 | 8 | 0 | 0.0 | 3.2 | 0.00 | 0.00 | 0.00 | 51 | 1008.8 |
| 20260507093046 | 8 | 0 | 0.0 | 0.0 | 0.00 | 0.00 | 0.00 | 49 | 1008.7 |
| 20260507091543 | 8 | 0 | 0.0 | 0.0 | 0.00 | 0.00 | 0.00 | 48 | 1008.2 |
| 20260507090047 | 8 | 0 | 0.0 | 0.0 | 0.00 | 0.00 | 0.00 | 49 | 1008.2 |
| 20260507084547 | 8 | 0 | 0.0 | 0.0 | 0.00 | 0.00 | 0.00 | 48 | 1008.3 |
| 20260507083105 | 8 | 0 | 0.0 | 0.0 | 0.00 | 0.00 | 0.00 | 49 | 1008.2 |
| 20260507081557 | 9 | 0 | 0.0 | 3.2 | 0.00 | 0.00 | 0.00 | 49 | 1007.9 |
| 20260507080044 | 9 | 0 | 0.0 | 1.6 | 0.00 | 0.00 | 0.00 | 51 | 1007.6 |
| 20260507074547 | 9 | 0 | 0.0 | 1.6 | 0.00 | 0.00 | 0.00 | 50 | 1007.7 |
| 20260507073053 | 9 | 0 | 0.0 | 4.8 | 0.00 | 0.00 | 0.00 | 49 | 1007.6 |
| 20260507071542 | 10 | 158 | 0.0 | 3.2 | 0.00 | 0.00 | 0.00 | 47 | 1007.5 |
| 20260507070043 | 10 | 0 | 0.0 | 9.7 | 0.00 | 0.00 | 0.00 | 49 | 1007.3 |
| 20260507064542 | 10 | 356 | 6.4 | 12.9 | 0.00 | 0.00 | 0.00 | 46 | 1006.7 |
| 20260507063043 | 10 | 257 | 4.8 | 9.7 | 0.00 | 0.00 | 0.00 | 37 | 1007.0 |
| 20260507061547 | 10 | 238 | 1.6 | 11.3 | 0.00 | 0.00 | 0.00 | 37 | 1007.4 |
| 20260507060048 | 11 | 212 | 4.8 | 12.9 | 0.00 | 0.00 | 0.00 | 37 | 1007.5 |
| 20260507054545 | 11 | 228 | 3.2 | 12.9 | 0.00 | 0.00 | 0.00 | 33 | 1007.5 |
| 20260507053043 | 11 | 281 | 6.4 | 11.3 | 0.00 | 0.00 | 0.00 | 32 | 1007.3 |
| 20260507051543 | 11 | 0 | 1.6 | 11.3 | 0.00 | 0.00 | 0.00 | 33 | 1007.7 |
| 20260507050041 | 12 | 211 | 1.6 | 8.0 | 0.00 | 0.00 | 0.00 | 30 | 1008.1 |
| 20260507044542 | 12 | 268 | 3.2 | 9.7 | 0.00 | 0.00 | 0.00 | 30 | 1007.9 |
| 20260507043043 | 12 | 283 | 4.8 | 14.5 | 0.00 | 0.00 | 0.00 | 30 | 1007.7 |
| 20260507041546 | 12 | 248 | 4.8 | 12.9 | 0.00 | 0.00 | 0.00 | 30 | 1008.1 |
| 20260507040041 | 12 | 272 | 4.8 | 14.5 | 0.00 | 0.00 | 0.00 | 30 | 1008.0 |
| 20260507034538 | 12 | 238 | 6.4 | 16.1 | 0.00 | 0.00 | 0.00 | 31 | 1007.7 |
| 20260507033047 | 13 | 216 | 6.4 | 12.9 | 0.00 | 0.00 | 0.00 | 30 | 1006.5 |
| 20260507031544 | 13 | 314 | 6.4 | 14.5 | 0.00 | 0.00 | 0.00 | 29 | 1006.5 |
| 20260507030041 | 13 | 274 | 4.8 | 17.7 | 0.00 | 0.00 | 0.00 | 28 | 1006.7 |
| 20260507024601 | 13 | 238 | 6.4 | 19.3 | 0.00 | 0.00 | 0.00 | 28 | 1006.5 |
| 20260507023048 | 14 | 238 | 8.0 | 16.1 | 0.00 | 0.00 | 0.00 | 27 | 1006.4 |
| 20260507021547 | 15 | 255 | 6.4 | 16.1 | 0.00 | 0.00 | 0.00 | 25 | 1006.7 |
| 20260507014549 | 16 | 231 | 4.8 | 14.5 | 0.00 | 0.00 | 0.00 | 24 | 1006.2 |
| 20260507013050 | 16 | 230 | 6.4 | 17.7 | 0.00 | 0.00 | 0.00 | 23 | 1006.2 |
| 20260507011548 | 17 | 201 | 6.4 | 16.1 | 0.00 | 0.00 | 0.00 | 23 | 1006.2 |
| 20260507010047 | 17 | 250 | 3.2 | 14.5 | 0.00 | 0.00 | 0.00 | 23 | 1006.1 |
| 20260507004546 | 17 | 179 | 6.4 | 14.5 | 0.00 | 0.00 | 0.00 | 23 | 1006.0 |
| 20260507003043 | 17 | 217 | 6.4 | 16.1 | 0.00 | 0.00 | 0.00 | 22 | 1006.4 |
| 20260507001553 | 18 | 188 | 4.8 | 17.7 | 0.00 | 0.00 | 0.00 | 22 | 1006.2 |
| 20260507000050 | 18 | 250 | 3.2 | 14.5 | 0.00 | 0.00 | 0.00 | 23 | 1006.2 |
| 20260506234553 | 19 | 185 | 3.2 | 12.9 | 0.00 | 0.00 | 0.00 | 22 | 1006.2 |
| 20260506233046 | 19 | 216 | 3.2 | 8.0 | 0.00 | 0.00 | 0.00 | 23 | 1006.5 |
| 20260506231555 | 19 | 174 | 1.6 | 9.7 | 0.00 | 0.00 | 0.00 | 23 | 1006.7 |
| 20260506230054 | 19 | 209 | 4.8 | 11.3 | 0.00 | 0.00 | 0.00 | 23 | 1006.8 |
| 20260506224541 | 18 | 319 | 1.6 | 6.4 | 0.00 | 0.00 | 0.00 | 24 | 1007.0 |
| 20260506223053 | 19 | 140 | 1.6 | 8.0 | 0.00 | 0.00 | 0.00 | 24 | 1007.1 |
| 20260506221548 | 18 | 146 | 0.0 | 4.8 | 0.00 | 0.00 | 0.00 | 24 | 1007.3 |
| 20260506220049 | 18 | 174 | 1.6 | 6.4 | 0.00 | 0.00 | 0.00 | 23 | 1007.5 |
| 20260506214546 | 18 | 41 | 3.2 | 6.4 | 0.00 | 0.00 | 0.00 | 25 | 1007.7 |
| 20260506213100 | 17 | 234 | 3.2 | 8.0 | 0.00 | 0.00 | 0.00 | 24 | 1007.9 |
| 20260506211556 | 18 | 98 | 0.0 | 11.3 | 0.00 | 0.00 | 0.00 | 24 | 1008.1 |
| 20260506210048 | 17 | 240 | 1.6 | 6.4 | 0.00 | 0.00 | 0.00 | 23 | 1008.4 |
| 20260506204555 | 17 | 106 | 4.8 | 14.5 | 0.00 | 0.00 | 0.00 | 22 | 1008.7 |
| 20260506203049 | 17 | 140 | 1.6 | 8.0 | 0.00 | 0.00 | 0.00 | 23 | 1008.8 |
| 20260506201557 | 17 | 97 | 3.2 | 9.7 | 0.00 | 0.00 | 0.00 | 24 | 1009.0 |
| 20260506200042 | 16 | 200 | 1.6 | 6.4 | 0.00 | 0.00 | 0.00 | 25 | 1009.2 |
| 20260506194554 | 17 | 268 | 1.6 | 9.7 | 0.00 | 0.00 | 0.00 | 24 | 1009.5 |
| 20260506193041 | 16 | 292 | 1.6 | 6.4 | 0.00 | 0.00 | 0.00 | 26 | 1009.8 |
| 20260506191548 | 16 | 324 | 1.6 | 14.5 | 0.00 | 0.00 | 0.00 | 27 | 1010.1 |
| 20260506190046 | 16 | 107 | 1.6 | 11.3 | 0.00 | 0.00 | 0.00 | 28 | 1010.5 |
| 20260506184551 | 15 | 264 | 3.2 | 9.7 | 0.00 | 0.00 | 0.00 | 26 | 1010.7 |
| 20260506183056 | 15 | 265 | 1.6 | 9.7 | 0.00 | 0.00 | 0.00 | 27 | 1010.9 |
| 20260506181540 | 14 | 68 | 3.2 | 12.9 | 0.00 | 0.00 | 0.00 | 28 | 1011.1 |
| 20260506180050 | 15 | 0 | 3.2 | 9.7 | 0.00 | 0.00 | 0.00 | 27 | 1011.3 |
| 20260506174547 | 13 | 347 | 3.2 | 9.7 | 0.00 | 0.00 | 0.00 | 27 | 1011.7 |
| 20260506173051 | 13 | 0 | 1.6 | 8.0 | 0.00 | 0.00 | 0.00 | 29 | 1011.9 |
| 20260506171544 | 13 | 86 | 3.2 | 9.7 | 0.00 | 0.00 | 0.00 | 30 | 1012.1 |
| 20260506164538 | 12 | 0 | 1.6 | 9.7 | 0.00 | 0.00 | 0.00 | 33 | 1012.7 |
| 20260506163058 | 11 | 99 | 1.6 | 11.3 | 0.00 | 0.00 | 0.00 | 35 | 1012.8 |
| 20260506161548 | 11 | 108 | 1.6 | 9.7 | 0.00 | 0.00 | 0.00 | 37 | 1013.0 |
| 20260506160046 | 10 | 103 | 1.6 | 9.7 | 0.00 | 0.00 | 0.00 | 37 | 1013.3 |
| 20260506154548 | 10 | 0 | 0.0 | 3.2 | 0.00 | 0.00 | 0.00 | 42 | 1013.5 |
| 20260506153046 | 8 | 0 | 1.6 | 3.2 | 0.00 | 0.00 | 0.00 | 40 | 1013.7 |
| 20260506151544 | 7 | 0 | 0.0 | 1.6 | 0.00 | 0.00 | 0.00 | 44 | 1013.9 |
| 20260506150048 | 7 | 191 | 0.0 | 3.2 | 0.00 | 0.00 | 0.00 | 42 | 1014.0 |
| 20260506144600 | 6 | 0 | 0.0 | 1.6 | 0.00 | 0.00 | 0.00 | 45 | 1014.2 |
| 20260506143045 | 5 | 0 | 0.0 | 1.6 | 0.00 | 0.00 | 0.00 | 46 | 1014.4 |